Location: Bas-Clignon
(44.2000°N, 6.6333°E)
Time: 03:26:47
(UTC+00:00)

Cosmos 1709 Rocket - Pass Details

Date: 03 February 2023
Orbit: 948 x 1001 km, 82.9° (Epoch: 27 March)

Event Time Altitude Azimuth Distance (km) Brightness Sun altitude
Rises 19:33:11 0° 349° (NNW) 3,654 7.2 -30.2°
Reaches altitude 10° 19:35:43 10° 346° (NNW) 2,697 6.5 -30.7°
Maximum altitude 19:41:48 65° 267° (W) 1,040 4.2 -31.8°
Enters shadow 19:43:07 52° 213° (SSW) 1,171 4.4 -32.0°
